PROFILE

 METAR AND TAF INFORMATION
ADDS - METARS form results

(2021 UTC 18 February 2019)
http://aviationweather.gov/metar/data/
 
LFKJ 182000Z AUTO 04004KT CAVOK 07/05 Q1024 NOSIG
LFKJ 181930Z AUTO 05005KT CAVOK 08/05 Q1024 NOSIG
TAF LFKJ 181400Z 1815/1915 22007KT CAVOK BECMG 1818/1821 04005KT TEMPO 1821/1907 BKN026 BECMG 1908/1911 24006KT 

 AIRPORT MAP

 RUNWAY INFORMATION
Runway 02 Runway length 7897 ft Runway width 148 ft
Runway elevation 15 ft Runway displaced threshold 0 ft Runway heading 25
Runway 20 Runway length 7897 ft Runway width 148 ft
Runway elevation 18 ft Runway displaced threshold 744 ft Runway heading 205

 AIRPORT FREQUENCIES
Type AFIS Name AFIS Frequency 119.825 MHZ
Type APP Name AJACCIO AP Frequency 121.05 MHZ
Type ATIS Name AJACCIO AT Frequency 126.925 MHZ
Type GND Name AJACCIO GN Frequency 121.7 MHZ
Type TWR Name AJACCIO TW Frequency 118.075 MHZ

 AIRPORT NEAR NAVIGATION AIDS
Type NDB Name Ajaccio/Campo Dell Oro Frequency 341 KHZ